Burlington, WA
on Monday, January 14, 2013

Monday
Previous Day Next Day
Daily Summary
 ActualAverage (KBLI)Record (KBLI)
Temperature
Mean Temperature °F 39°F  
Max Temperature 33°F 45°F 62°F (1968)
Min Temperature 32°F 33°F 10°F (2007)
Degree Days
Heating Degree Days 32 26  
Month to date heating degree days 370  
Cooling Degree Days 0 0  
Month to date cooling degree days 0  
Year to date cooling degree days 0  
Moisture
Dew Point 33°F   
Average Humidity 99    
Maximum Humidity 100    
Minimum Humidity 93    
Precipitation
Precipitation 0.00 in 0.16 in 0.94 in (1996)
Month to date precipitation 2.14  
Year to date precipitation 2.14  
Wind
Wind Speed 2 mph   
Max Wind Speed 6 mph   
Max Gust Speed mph   
Visibility 6 miles   
Events     

Key: T is trace of precipitation, MM is missing value
Source: NWS Daily Summary
Time(PST)TemperatureDew PointHumidity Pressure Visibility Wind DirectionWind SpeedGust SpeedPrecipitationEvents Conditions
12:15 AM 32.0°F 30.2°F 93% 30.49 in 9.0 miles ENE 4.6 mph - 0.00 in   Scattered Clouds
12:35 AM 32.0°F 30.2°F 93% 30.49 in 9.0 miles NE 4.6 mph - 0.00 in   Mostly Cloudy
12:55 AM 32.0°F 32.0°F 100% 30.49 in 9.0 miles Calm Calm - 0.00 in   Mostly Cloudy
1:15 AM 32.0°F 32.0°F 100% 30.50 in 10.0 miles Calm Calm - 0.00 in   Mostly Cloudy
1:35 AM 32.0°F 32.0°F 100% 30.50 in 10.0 miles Calm Calm - 0.00 in   Overcast
1:55 AM 32.0°F 32.0°F 100% 30.49 in 10.0 miles ENE 3.5 mph - 0.00 in   Overcast
2:15 AM 32.0°F 32.0°F 100% 30.50 in 9.0 miles Calm Calm - 0.00 in   Overcast
2:35 AM 32.0°F 32.0°F 100% 30.50 in 10.0 miles East 4.6 mph - 0.00 in   Overcast
3:15 AM 32.0°F 32.0°F 100% 30.49 in 10.0 miles Calm Calm - 0.00 in   Overcast
3:55 AM 32.0°F 32.0°F 100% 30.50 in 10.0 miles Calm Calm - 0.00 in   Overcast
4:15 AM 32.0°F 32.0°F 100% 30.49 in 9.0 miles Calm Calm - 0.00 in   Overcast
4:35 AM 32.0°F 32.0°F 100% 30.49 in 10.0 miles Calm Calm - 0.00 in   Overcast
4:55 AM 32.0°F 32.0°F 100% 30.49 in 10.0 miles Calm Calm - 0.00 in   Overcast
5:35 AM 32.0°F 32.0°F 100% 30.49 in 10.0 miles NE 5.8 mph - 0.00 in   Overcast
5:55 AM 32.0°F 32.0°F 100% 30.50 in 9.0 miles Calm Calm - 0.00 in   Overcast
6:15 AM 32.0°F 32.0°F 100% 30.48 in 10.0 miles Calm Calm - 0.00 in   Overcast
6:55 AM 32.0°F 32.0°F 100% 30.50 in 10.0 miles Calm Calm - 0.00 in   Overcast
7:15 AM 32.0°F 32.0°F 100% 30.50 in 8.0 miles Calm Calm - 0.00 in   Overcast
7:35 AM 32.0°F 32.0°F 100% 30.50 in 10.0 miles Calm Calm - 0.00 in   Overcast
7:55 AM 32.0°F 32.0°F 100% 30.50 in 10.0 miles Calm Calm - 0.00 in   Overcast
8:15 AM 32.0°F 32.0°F 100% 30.50 in 10.0 miles East 3.5 mph - 0.00 in   Overcast
8:35 AM 32.0°F 32.0°F 100% 30.50 in 8.0 miles East 3.5 mph - 0.00 in   Overcast
8:55 AM 33.8°F 32.0°F 93% 30.51 in 8.0 miles East 5.8 mph - 0.00 in   Overcast
9:15 AM 33.8°F 32.0°F 93% 30.51 in 8.0 miles East 3.5 mph - 0.00 in   Overcast
9:35 AM 33.8°F 32.0°F 93% 30.51 in 8.0 miles NE 4.6 mph - 0.00 in   Overcast
9:55 AM 33.8°F 32.0°F 93% 30.51 in 7.0 miles ENE 3.5 mph - 0.00 in   Overcast
10:15 AM 33.8°F 32.0°F 93% 30.52 in 8.0 miles ENE 3.5 mph - 0.00 in   Overcast
10:35 AM 33.8°F 32.0°F 93% 30.52 in 8.0 miles East 3.5 mph - 0.00 in   Overcast
11:15 AM 33.8°F 32.0°F 93% 30.52 in 5.0 miles East 3.5 mph - 0.00 in   Overcast
11:35 AM 33.8°F 32.0°F 93% 30.52 in 5.0 miles ESE 4.6 mph - 0.00 in   Overcast
11:55 AM 33.8°F 33.8°F 100% 30.52 in 5.0 miles East 4.6 mph - 0.00 in   Overcast
12:15 PM 33.8°F 33.8°F 100% 30.52 in 5.0 miles ENE 4.6 mph - 0.00 in   Overcast
12:35 PM 33.8°F 33.8°F 100% 30.52 in 4.0 miles East 3.5 mph - 0.00 in   Overcast
1:15 PM 33.8°F 33.8°F 100% 30.51 in 1.8 miles ESE 3.5 mph - 0.00 in   Overcast
1:35 PM 33.8°F 33.8°F 100% 30.51 in 2.0 miles SE 3.5 mph - 0.00 in   Overcast
1:55 PM 33.8°F 33.8°F 100% 30.51 in 1.8 miles Calm Calm - 0.00 in   Overcast
2:15 PM 33.8°F 33.8°F 100% 30.52 in 2.0 miles Calm Calm - 0.00 in   Overcast
2:35 PM 33.8°F 33.8°F 100% 30.53 in 1.5 miles Calm Calm - 0.00 in   Overcast
2:55 PM 33.8°F 33.8°F 100% 30.52 in 1.8 miles Calm Calm - 0.00 in   Overcast
3:15 PM 33.8°F 33.8°F 100% 30.53 in 2.0 miles Calm Calm - 0.00 in   Overcast
3:35 PM 33.8°F 33.8°F 100% 30.52 in 1.8 miles Calm Calm - 0.00 in   Overcast
3:55 PM 33.8°F 33.8°F 100% 30.53 in 1.5 miles Calm Calm - 0.00 in   Overcast
4:15 PM 33.8°F 33.8°F 100% 30.54 in 1.8 miles Calm Calm - 0.00 in   Overcast
4:35 PM 33.8°F 33.8°F 100% 30.54 in 1.8 miles Calm Calm - 0.00 in   Overcast
4:55 PM 33.8°F 33.8°F 100% 30.54 in 2.5 miles Calm Calm - 0.00 in   Overcast
5:15 PM 33.8°F 33.8°F 100% 30.54 in 2.5 miles Calm Calm - 0.00 in   Overcast
5:35 PM 33.8°F 33.8°F 100% 30.54 in 4.0 miles Calm Calm - 0.00 in   Overcast
6:15 PM 33.8°F 33.8°F 100% 30.55 in 3.0 miles Calm Calm - 0.00 in   Overcast
6:35 PM 33.8°F 33.8°F 100% 30.55 in 3.0 miles Calm Calm - 0.00 in   Overcast
6:55 PM 33.8°F 33.8°F 100% 30.55 in 3.0 miles Calm Calm - 0.00 in   Overcast
7:15 PM 33.8°F 33.8°F 100% 30.55 in 2.5 miles Calm Calm - 0.00 in   Overcast
7:35 PM 33.8°F 33.8°F 100% 30.56 in 2.0 miles Calm Calm - 0.00 in   Overcast
7:55 PM 33.8°F 33.8°F 100% 30.56 in 2.5 miles Calm Calm - 0.00 in   Overcast
8:15 PM 33.8°F 33.8°F 100% 30.57 in 3.0 miles Calm Calm - 0.00 in   Overcast
8:35 PM 33.8°F 33.8°F 100% 30.57 in 5.0 miles Calm Calm - 0.00 in   Overcast
8:55 PM 33.8°F 33.8°F 100% 30.57 in 7.0 miles Calm Calm - 0.00 in   Overcast
9:15 PM 33.8°F 33.8°F 100% 30.57 in 5.0 miles Calm Calm - 0.00 in   Overcast
9:55 PM 33.8°F 33.8°F 100% 30.57 in 8.0 miles Calm Calm - 0.00 in   Overcast
10:15 PM 33.8°F 33.8°F 100% 30.58 in 7.0 miles Calm Calm - 0.00 in   Overcast
10:35 PM 33.8°F 33.8°F 100% 30.58 in 8.0 miles Calm Calm - 0.00 in   Overcast
10:55 PM 33.8°F 33.8°F 100% 30.58 in 8.0 miles Calm Calm - 0.00 in   Overcast
11:15 PM 33.8°F 33.8°F 100% 30.58 in 8.0 miles Calm Calm - 0.00 in   Overcast
11:35 PM 33.8°F 33.8°F 100% 30.58 in 8.0 miles Calm Calm - 0.00 in   Overcast
11:55 PM 33.8°F 33.8°F 100% 30.59 in 8.0 miles Calm Calm - 0.00 in   Overcast
Moon Phase
Jan. 14 Jan. 18 Jan. 26 Feb. 03 Feb. 10
Sunrise:07:56 AM (PST) Moon Rise:09:13 AM (PST)1/14
Sunset:04:41 PM (PST) Moon Set:08:55 PM (PST)1/14

Copyright © 2014 The Weather Underground, Inc.